SCP
0 0 0 0 0 0 0 0 0 0 0 -0 0 0 0 0 0 0 0 0 0 0 0 0 0 0 0 0 0 0 0 0 0 0 0 0 0 0 0 0 0 0 0 0 0 0 0 0 0
0 0 0 0 0 0 0 0 0 0 0 0 0 0 0 0 0 0 0 0 0 0 0 0 0 0 0 0 0 0 0 0 0 0 0 0 0 0 0 0 0 0 0 0 0 0 0 0 0
0 0 0 0 0 0 0 0 0 0 0 0 0 0 0 0 0 0 0 0 0 0 0 0 0 0 0 0 0 0 0 0 0 0 0 0 0 0 0 0 0 0 0 0 0 0 0 0 0
0 0 0 0 0 0 0 0 0 0 0 0 0 0 0 0 0 0 0 0 0 0 0 0 0 0 0 0 0 0 0 0 0 0 0 0 0 0 0 0 0 0 0 0 0 0 0 0 0
0 0 0 0 0 0 0 0 0 0 0 0 0 0 0 0 0 0 0 0 0 0 0 0 0 0 0 0 0 0 0 0 0 0 0 0 0 0 0 0 0 0 0 0 0 0 0 0 0
0 0 0 0 0 0 0 0 0 0 0 0 0 0 0 0 0 0 0 0 0 0 0 0 0 0 0 0 0 0 0 0 0 0 0 0 0 0 0 0 0 0 0 0 0 0 0 0 0
0 0 0 0 0 0 0 0 0 0 0 0 0 0 0 0 0 0 0 0 0 0 0 0 0 0 0 0 0 0 0 0 0 0 0 0 0 0 0 0 0 0 0 0 0 0 0 0 0
0 0 0 0 0 0 0 0 0 0 0 0 0 0 0 0 0 0 0 0 0 0 0 0 0 0 0 0 0 0 0 0 0 0 0 0 0 0 0 0 0 0 0 0 0 0 0 0 0
0 0 0 0 0 0 0 0 0 0 0 0 0 0 0 0 0 0 0 0 0 0 0 0 0 0 0 0 0 0 0 0 0 0 0 0 0 0 0 0 0 0 0 0 0 0 0 0 0
0 0 0 0 0 0 0 0 0 0 0 0 0 0 0 0 0 0 0 0 0 0 0 0 0 0 0 0 0 0 0 0 0 0 0 0 0 0 0 0 0 0 0 0 0 0 0 0 0
0 0 0 0 0 0 0 0 0 0 0 0 0 0 0 0 0 0 0 0 0 0 0 0 0 0 0 0 0 0 0 0 0 0 0 0 0 0 0 0 0 0 0 0 0 0 0 0 0
0 0 0 0 0 0 0 0 0 0 0 0 0 0 0 0 0 0 0 0 0 0 0 0 0 0 0 0 0 0 0 0 0 0 0 0 0 0 0 0 0 0 0 0 0 0 0 0 0
0 0 0 0 0 0 0 0 0 0 0 0 0 0 0 0 0 0 0 0 0 0 0 0 0 0 0 0 0 0 0 0 0 0 0 0 0 0 0 0 0 0 0 0 0 0 0 0 0
0 0 0 0 0 0 0 0 0 0 0 0 0 0 0 0 0 0 0 0 0 0 0 0 0 0 0 0 0 0 0 0 0 0 0 0 0 0 0 0 0 0 0 0 0 0 0 0 0
0 0 0 0 0 0 0 0 0 0 0 0 0 0 0 0 0 0 0 0 0 0 0 0 0 0 0 0 0 0 0 0 0 0 1 1 0 0 0 0 0 0 0 0 0 0 0 0 0
0 0 0 0 0 0 0 0 0 0 0 0 0 0 0 0 0 0 0 0 0 0 0 0 0 0 0 0 0 0 0 0 0 0 1 1 1 0 0 0 0 0 0 0 0 0 0 0 0
0 0 0 0 0 0 0 0 0 0 0 0 0 0 0 0 0 0 0 0 0 0 0 0 0 0 0 0 0 0 0 0 0 0 1 1 1 1 1 1 0 0 0 0 0 0 0 0 0
0 0 0 0 0 0 0 0 0 0 0 0 0 0 0 0 0 0 0 0 0 0 0 0 0 0 0 0 0 0 0 0 0 0 0 0 0 0 0 1 0 0 0 0 0 0 0 0 0
0 0 0 0 0 0 0 0 0 0 0 0 0 0 0 0 0 0 0 0 0 0 0 0 0 0 0 0 0 0 0 0 0 0 0 0 0 0 0 0 0 0 0 0 0 0 0 0 0
0 0 0 0 0 0 0 0 0 0 0 0 0 0 0 0 0 0 0 0 0 0 0 0 0 0 0 0 0 0 0 0 0 0 0 0 0 0 0 0 0 0 0 0 0 0 0 0 0
0 0 0 0 0 0 0 0 0 0 0 0 0 0 0 0 0 0 0 0 0 0 0 0 0 0 0 0 0 0 0 0 0 0 0 0 0 0 0 0 0 0 0 0 0 0 0 0 0
0 0 0 0 0 0 0 0 0 0 0 0 0 0 0 0 0 0 0 0 0 0 0 0 0 0 0 0 0 0 0 0 0 0 0 0 0 0 0 0 0 0 0 0 0 0 0 0 0
0 0 0 0 0 0 0 0 0 0 0 0 0 0 0 0 0 0 0 0 0 0 0 0 0 0 0 0 0 0 0 0 0 0 0 0 0 0 0 0 0 0 0 0 0 0 0 0 0
0 0 0 0 0 0 0 0 0 0 0 0 0 0 0 0 0 0 0 0 0 0 0 0 0 0 0 0 0 0 0 0 0 0 0 0 0 0 0 0 0 0 0 0 0 0 0 0 0
0 0 0 0 0 0 0 0 0 0 0 0 0 0 0 0 0 0 0 0 0 0 0 0 0 0 0 0 0 0 0 0 0 0 0 0 0 0 0 0 0 0 0 0 0 0 0 0 0
0 0 0 0 0 0 0 0 0 0 0 0 0 0 0 0 0 0 0 0 0 0 0 0 0 0 0 0 0 0 0 0 0 0 0 0 0 0 0 0 0 0 0 0 0 0 0 0 0
0 0 0 0 0 0 0 0 0 0 0 0 0 0 0 0 0 0 0 0 0 0 0 0 0 0 0 0 0 0 0 0 0 0 0 0 0 0 0 0 0 0 0 0 0 0 0 0 0
0 0 0 0 0 0 0 0 0 0 0 0 0 0 0 0 0 0 0 0 0 0 0 0 0 0 0 0 0 0 0 0 0 0 0 0 0 0 0 0 0 0 0 0 0 0 0 0 0
0 0 0 0 0 0 0 0 0 0 0 0 0 0 0 0 0 0 0 0 0 0 0 0 0 0 0 0 0 0 0 0 0 0 0 0 0 0 0 0 0 0 0 0 0 0 0 0 0
0 0 0 0 0 0 0 0 0 0 0 0 0 0 0 0 0 0 0 0 0 0 0 0 0 0 0 0 0 0 0 0 0 0 0 0 0 0 0 0 0 0 0 0 0 0 0 0 0
Wind_Speed
10 9 6 3 3 3 6 5 6 5 5 6 7 5 6 9 6 8 6 11 13 13 13 10 10 11 11 12 12 12 12 13 14 14 14 14 14 14 15 16 17 17 18 19 19 19 19 19 18
7 6 4 3 3 0 6 6 6 6 7 5 3 1 1 8 7 8 7 11 13 13 12 11 11 12 12 12 12 12 13 13 14 14 14 14 14 15 16 16 17 17 18 19 19 19 19 18 18
7 5 4 3 2 5 6 7 9 8 6 3 3 2 5 7 9 7 7 10 12 12 11 12 12 12 13 13 12 12 13 13 14 14 14 15 15 16 16 17 17 17 18 18 18 18 18 17 17
4 4 4 3 3 7 6 7 11 8 4 0 1 5 5 5 5 8 9 9 10 10 12 12 13 13 13 13 13 12 13 13 14 14 14 15 15 16 16 17 17 17 17 18 18 17 17 16 16
3 3 4 2 3 5 5 6 9 7 7 5 2 3 7 4 7 9 7 9 9 9 11 12 12 12 12 12 13 12 13 13 14 14 14 15 15 16 16 16 17 17 17 17 17 17 17 16 16
3 3 3 1 6 6 4 3 4 5 5 6 2 2 6 7 7 7 7 8 8 9 11 10 10 11 11 11 11 11 12 13 13 14 14 15 15 15 15 16 16 17 17 17 17 17 17 16 16
2 2 5 4 4 4 6 4 3 3 4 5 2 4 7 7 7 6 6 7 8 9 10 9 8 9 10 11 11 11 11 12 12 13 13 13 13 15 15 15 16 17 17 17 17 17 17 17 17
3 3 4 4 1 3 7 5 1 1 3 4 2 0 6 9 9 6 5 5 7 8 8 9 8 8 7 7 10 11 11 11 12 12 12 12 12 13 12 12 15 16 17 17 17 17 16 16 15
3 2 5 3 1 3 9 5 3 3 4 3 2 4 4 15 11 7 5 4 5 7 7 8 9 8 8 8 10 10 11 11 12 10 13 11 7 7 8 10 13 16 16 17 17 16 15 13 13
2 3 6 3 4 4 7 5 7 3 4 5 4 5 6 12 10 10 9 8 8 8 7 6 8 8 8 8 8 7 7 8 7 7 8 6 6 6 9 11 12 13 14 15 15 14 11 7 5
4 4 3 4 7 4 3 4 6 5 5 7 9 12 10 10 10 10 10 9 8 8 7 6 7 7 7 5 7 5 5 6 7 8 8 5 6 7 7 5 6 7 8 6 7 6 4 5 4
3 1 4 4 3 2 0 2 3 6 2 5 5 13 12 12 12 13 12 10 9 9 9 7 6 6 6 6 6 5 5 6 6 8 8 6 5 6 6 5 5 5 3 4 3 3 5 6 6
4 2 3 4 2 1 3 3 3 6 6 6 6 9 11 12 11 10 9 9 9 10 11 10 8 7 6 5 4 5 6 6 7 7 7 8 7 7 7 6 5 5 4 4 4 5 6 6 6
0 3 4 4 3 2 2 4 4 7 6 7 8 8 9 11 11 10 10 10 11 11 11 11 10 8 7 6 5 4 5 5 6 7 9 9 8 8 8 7 6 5 5 5 5 6 5 5 5
0 2 4 5 5 3 1 6 8 9 5 6 7 8 10 11 11 11 11 11 11 9 9 10 11 10 9 8 7 5 4 5 5 6 9 10 9 10 9 8 7 6 6 7 6 6 5 6 6
3 3 4 6 6 4 2 7 6 5 8 7 7 9 10 11 11 11 11 10 10 9 9 10 9 10 10 8 7 5 5 5 5 5 7 10 10 11 9 8 8 7 7 7 7 6 6 6 6
4 4 6 5 5 5 6 7 2 3 4 6 8 8 9 9 11 11 11 11 11 11 11 10 10 10 9 8 6 6 5 5 5 5 6 8 10 11 9 8 8 10 8 7 8 7 7 7 6
4 6 6 6 6 5 6 9 7 5 7 8 8 8 8 9 10 10 12 12 11 10 10 11 11 10 8 6 5 4 5 5 5 5 6 9 9 11 10 8 10 10 9 8 8 8 6 6 7
4 4 4 2 4 2 7 10 11 9 8 10 10 9 10 10 10 10 12 12 11 10 11 12 12 12 9 7 7 7 7 5 5 5 7 8 10 12 11 9 11 11 10 12 11 8 10 7 8
1 4 5 1 4 1 6 12 11 12 12 11 11 10 10 10 9 10 11 12 13 13 12 11 12 12 12 10 8 5 5 5 5 5 6 7 9 12 11 13 12 12 10 11 11 11 7 5 8
4 6 6 4 2 4 4 10 11 12 13 11 10 9 9 10 10 8 9 11 12 13 13 12 12 12 12 10 6 4 4 3 5 7 8 8 9 10 11 14 13 14 13 13 14 16 13 10 9
6 5 4 2 3 4 4 7 6 6 5 8 8 9 10 10 10 8 8 9 11 12 11 11 10 10 10 10 9 10 10 10 10 6 6 7 8 10 11 13 14 14 13 14 15 16 10 12 11
2 4 3 1 2 4 3 5 9 6 7 8 9 10 10 9 7 6 6 7 8 9 9 9 10 10 10 10 11 10 9 7 4 5 7 8 8 9 10 12 13 14 13 14 16 15 12 9 10
7 4 3 1 2 6 8 8 9 7 9 7 7 5 1 1 2 3 3 4 3 5 7 7 8 9 9 9 10 11 10 8 7 8 8 7 6 7 9 10 12 13 13 14 14 16 15 12 11
5 5 2 3 4 9 8 9 9 7 3 1 1 2 1 2 2 1 2 3 4 5 6 7 7 8 8 9 9 10 10 9 10 9 8 8 7 7 10 10 12 11 12 13 13 14 14 13 12
8 8 9 8 6 5 2 10 9 2 1 0 3 6 4 3 3 3 4 5 5 7 7 7 8 7 8 9 9 8 9 7 7 8 7 8 8 8 9 11 11 12 12 13 14 12 14 11 12
8 8 5 2 1 4 8 8 5 3 3 5 7 6 5 3 3 4 4 4 5 6 7 7 7 7 7 8 8 8 8 9 8 8 8 7 7 7 10 12 12 12 13 14 14 11 14 12 13
2 5 4 5 5 6 9 9 7 6 10 8 6 4 3 0 1 1 2 2 3 4 5 6 7 7 7 7 7 7 8 9 8 7 8 8 8 8 10 12 12 12 12 13 12 9 11 13 12
5 4 6 6 6 7 7 10 3 4 7 5 2 1 2 2 1 0 1 2 3 3 3 5 6 6 7 8 8 8 8 8 9 9 9 8 7 9 10 10 11 12 12 12 12 12 12 14 12
8 10 9 7 7 4 5 12 3 4 5 5 4 2 2 1 1 0 1 2 3 4 5 5 6 7 8 8 8 8 8 8 9 10 9 8 8 9 9 9 10 11 11 11 13 14 13 15 15
Wind_Direction
294 265 261 266 257 232 91 95 100 91 82 43 39 14 18 40 35 98 135 135 130 131 133 144 141 137 129 118 110 103 99 95 93 92 91 91 91 90 89 88 88 88 87 86 84 82 81 80 79
292 288 264 245 259 172 105 114 113 84 82 88 70 343 50 80 82 108 129 128 131 133 139 144 139 137 131 122 115 108 102 99 97 95 94 94 93 93 91 90 89 89 89 88 86 85 83 81 81
271 264 263 256 302 30 81 113 105 87 91 118 131 354 27 90 110 124 129 134 132 133 133 134 140 138 133 127 120 114 107 104 101 99 98 97 96 94 93 92 90 89 89 89 88 86 85 83 81
267 241 244 265 47 54 55 104 109 115 110 19 135 119 78 52 83 115 134 139 132 129 127 137 141 140 137 132 127 121 115 110 107 104 103 102 99 97 95 94 92 91 90 90 89 87 85 83 79
230 263 252 262 82 81 62 85 122 143 158 161 221 117 106 77 80 119 150 142 134 130 127 141 142 142 140 138 134 128 121 116 112 110 108 106 104 102 100 98 97 96 95 94 92 89 85 81 75
255 263 277 260 102 107 106 105 144 157 126 120 192 122 103 130 139 149 153 142 137 129 128 137 139 142 143 142 139 133 127 123 119 117 114 112 109 107 105 104 102 101 99 97 94 92 87 82 74
268 276 292 321 91 126 121 135 168 155 144 145 184 125 120 150 146 144 145 151 138 129 131 139 145 146 144 145 143 138 133 128 125 121 117 112 111 110 108 107 107 106 103 100 97 94 89 83 75
304 281 272 283 302 116 128 140 134 151 101 71 2 53 140 155 137 140 150 157 136 136 143 151 156 156 153 149 149 143 139 134 128 121 116 111 108 107 106 107 111 110 108 105 101 97 90 82 72
291 271 270 270 303 104 132 148 115 32 89 114 82 50 77 131 133 143 157 167 148 152 162 161 163 164 162 162 156 149 144 138 132 128 129 126 122 118 109 110 113 114 112 110 107 102 94 81 66
215 234 255 332 32 64 137 168 145 164 190 173 151 111 111 133 148 164 175 180 174 174 180 173 169 167 166 165 154 160 157 153 153 150 157 153 139 124 114 108 110 112 114 114 114 111 104 85 60
220 236 270 58 50 32 138 195 165 184 214 203 184 162 158 160 171 182 188 188 184 181 183 181 173 169 167 156 161 169 166 167 170 165 179 148 124 121 119 116 111 114 120 115 120 102 76 68 61
268 344 25 62 57 8 155 200 199 213 217 59 63 150 161 175 187 193 193 191 185 186 187 187 179 171 173 166 172 171 169 173 174 175 177 152 143 144 146 147 151 156 139 135 111 94 88 80 71
245 104 73 83 125 345 352 267 241 240 219 126 97 131 169 186 195 200 195 192 188 191 187 184 184 182 178 176 181 177 175 177 176 175 177 163 158 158 157 160 160 157 142 139 126 116 109 99 86
266 126 144 157 161 158 243 263 235 246 228 162 152 171 189 193 196 195 199 197 196 193 188 180 183 187 184 186 190 188 182 179 178 175 178 171 166 165 164 162 160 155 151 145 136 131 119 107 99
359 181 193 194 191 163 237 270 233 229 209 187 189 197 205 202 194 199 201 200 197 192 186 179 181 186 190 194 195 194 190 183 182 180 181 179 173 170 168 166 163 159 150 141 134 127 118 117 111
201 217 228 189 172 145 193 263 258 206 179 204 222 218 209 207 198 199 201 198 195 187 187 184 178 186 193 194 195 195 196 193 189 185 183 184 179 172 168 168 168 158 150 149 146 145 139 132 126
198 225 226 161 176 164 205 257 247 99 163 228 241 238 224 210 202 199 197 195 193 190 185 186 181 186 192 192 194 200 198 200 195 190 188 186 181 175 171 172 167 158 157 157 158 154 149 143 132
196 217 229 195 162 186 227 257 268 202 197 224 237 241 234 222 212 200 194 193 190 190 186 186 183 185 187 186 193 201 205 205 198 195 197 187 183 179 174 171 167 164 163 163 164 158 149 141 135
2 324 288 89 110 194 250 261 263 255 229 227 231 234 236 232 220 203 193 186 183 185 187 187 186 187 186 189 192 196 205 203 202 201 200 195 186 183 180 173 170 171 174 174 168 154 148 144 139
276 299 301 330 113 177 275 274 266 253 245 236 236 236 236 238 230 213 193 180 183 187 191 192 193 189 191 196 192 187 184 200 203 198 205 203 193 188 185 178 177 177 175 172 170 157 150 164 172
227 234 253 271 154 212 268 285 248 243 230 230 233 240 247 243 237 221 196 184 182 188 193 198 199 195 193 188 175 175 181 185 196 203 205 206 200 193 188 184 179 180 180 180 178 175 165 175 195
236 225 223 296 327 283 212 289 291 281 227 219 230 239 244 244 238 228 206 192 187 191 188 192 196 197 193 185 187 187 194 202 205 199 199 198 201 200 193 186 183 184 186 185 184 186 182 173 184
139 61 92 175 236 279 230 255 270 248 249 237 230 235 237 234 224 215 198 186 184 180 181 187 191 197 194 192 193 197 207 211 196 189 192 197 201 203 199 191 188 189 191 189 188 190 191 186 187
125 103 94 136 207 255 205 220 265 223 229 229 225 227 187 84 74 94 106 114 143 158 169 177 186 196 195 195 196 201 207 204 206 202 197 196 197 203 202 196 194 193 194 193 192 193 197 198 196
161 146 164 219 222 248 196 214 245 218 214 181 256 304 63 80 75 103 149 172 180 174 174 177 186 196 194 196 202 204 205 206 213 210 200 193 193 202 205 201 201 197 196 196 193 195 200 202 201
197 186 175 194 222 265 215 232 252 257 117 139 260 264 267 242 221 223 217 204 196 188 179 180 191 200 196 199 206 206 204 211 221 216 202 200 202 204 198 205 207 201 197 198 196 198 202 204 207
172 218 219 229 282 295 260 257 268 182 233 254 259 263 264 249 222 219 215 207 194 184 184 186 192 200 201 201 204 209 209 213 221 220 208 202 198 193 193 200 208 206 201 201 198 202 203 204 208
213 172 145 182 199 241 264 251 239 211 225 246 267 279 277 198 145 189 198 193 178 172 177 182 192 200 203 202 206 211 214 217 221 222 220 211 199 189 188 195 203 206 205 203 202 201 202 205 208
178 194 182 185 186 188 258 261 202 166 184 198 216 92 69 67 78 121 171 153 146 148 169 188 198 203 204 205 206 210 215 217 218 223 223 214 202 192 190 192 198 204 206 203 205 206 201 206 207
201 201 186 185 223 215 237 261 147 94 116 123 109 83 49 50 23 345 176 177 186 204 206 207 208 211 210 205 208 214 215 217 221 226 222 211 207 198 193 190 197 204 206 204 205 207 205 205 205